Coimbatore International Airport

Jump to: basic info | weather | frequencies | runways | comments

Related pages: nearby airports | nearby navaids | notams | map

Basic information (top)

Codes: CJB VOCB
Location: lon 11.030000, lat 77.043404, elev 1,324 ft / 404 m msl
Status: medium_airport
Scheduled airline service: yes
Links: Wikipedia Mobile

Weather (top)

Current conditions (rec'd 2014/07/31 09:00Z):

VOCB 310900Z 23012KT 6000 FEW015 SCT080 30/21 Q1009 NOSIG

Airport forecast (rec'd 2014/07/29 18:00Z):

TAF VOCB 291500Z 2918/3024 23005KT 5000 HZ SCT015 BKN080 
      BECMG 3004/3005 27010G20KT 6000 
      BECMG 3014/3015 23005KT 5000 HZ

Frequencies (top)

Verify before use: may be inaccurate or out of date.

APP: 120.05 MHz (AFTER 0430 HRS UTC)
ATIS: 128.05 MHz ()
TWR: 118.15 MHz ()

Runways (top)

05/23: 8,480 x 150 ft (2,585 x 46 m) — paved — lighted

Latest comments (top)

re: Flying Club: Dude, i been looking for someone ... [read]

more international flights: is there any near future plan to have ... [read]

Flying Club: Anyone interested in starting a flying ... [read]

More... (top)

See also NOTAMs and nearby airports and navaids, or visit the Coimbatore International Airport page at the main OurAirports website..